LCO1741 SBKP-SBFL

Flight info

Callsign LCO1741
Flight time 0h 52m
Altitude 28000
Route SOVSI DCT PUBIS
Aircraft B763/H-SDE3FGHIM3RWXY/LB1

Departure

Time 2026-05-05 01:14
Airport Viracopos International Airport (SBKP)

Arrival

Time 2026-05-05 02:07
Airport Hercílio Luz International Airport (SBFL)
Time Latitude Longitude Altitude Speed Heading
2026-05-05 00:46 -23.00510 -47.14418 2181 ft 0 kts 217°
2026-05-05 01:05 -23.00502 -47.14408 2181 ft 2 kts 239°
2026-05-05 01:05 -23.00491 -47.14396 2181 ft 2 kts 213°
2026-05-05 01:06 -23.00479 -47.14387 2181 ft 2 kts 216°
2026-05-05 01:06 -23.00467 -47.14377 2181 ft 2 kts 218°
2026-05-05 01:06 -23.00457 -47.14365 2181 ft 2 kts 244°
2026-05-05 01:06 -23.00452 -47.14350 2181 ft 2 kts 268°
2026-05-05 01:07 -23.00454 -47.14334 2181 ft 2 kts 290°
2026-05-05 01:07 -23.00458 -47.14324 2181 ft 0 kts 307°
2026-05-05 01:07 -23.00462 -47.14320 2181 ft 0 kts 308°
2026-05-05 01:09 -23.00458 -47.14324 2181 ft 2 kts 308°
2026-05-05 01:10 -23.00442 -47.14346 2181 ft 5 kts 309°
2026-05-05 01:10 -23.00415 -47.14381 2181 ft 6 kts 308°
2026-05-05 01:10 -23.00384 -47.14425 2181 ft 8 kts 308°
2026-05-05 01:10 -23.00346 -47.14477 2181 ft 9 kts 308°
2026-05-05 01:11 -23.00305 -47.14534 2180 ft 9 kts 307°
2026-05-05 01:11 -23.00260 -47.14597 2180 ft 11 kts 307°
2026-05-05 01:11 -23.00209 -47.14670 2180 ft 13 kts 307°
2026-05-05 01:11 -23.00146 -47.14758 2180 ft 14 kts 307°
2026-05-05 01:12 -23.00074 -47.14807 2180 ft 10 kts 344°
2026-05-05 01:12 -23.00007 -47.14806 2180 ft 8 kts 10°
2026-05-05 01:12 -22.99954 -47.14786 2180 ft 7 kts 30°
2026-05-05 01:12 -22.99911 -47.14748 2180 ft 9 kts 41°
2026-05-05 01:13 -22.99871 -47.14687 2180 ft 11 kts 85°
2026-05-05 01:13 -22.99900 -47.14623 2180 ft 0 kts 128°
2026-05-05 01:13 -22.99903 -47.14619 2180 ft 7 kts 128°
2026-05-05 01:13 -23.00058 -47.14403 2180 ft 64 kts 127°
2026-05-05 01:14 -23.00443 -47.13864 2181 ft 114 kts 128°
2026-05-05 01:14 -23.01034 -47.13040 2182 ft 157 kts 127°
2026-05-05 01:14 -23.01772 -47.12026 2399 ft 179 kts 128°
2026-05-05 01:14 -23.02558 -47.10954 2945 ft 184 kts 127°
2026-05-05 01:15 -23.03652 -47.10189 3397 ft 197 kts 166°
2026-05-05 01:15 -23.05035 -47.10283 3900 ft 205 kts 203°
2026-05-05 01:15 -23.06317 -47.10996 4301 ft 218 kts 210°
2026-05-05 01:15 -23.07697 -47.11855 4710 ft 235 kts 209°
2026-05-05 01:16 -23.09192 -47.12743 5189 ft 251 kts 209°
2026-05-05 01:16 -23.10758 -47.13706 5715 ft 265 kts 218°
2026-05-05 01:16 -23.12197 -47.15015 6278 ft 278 kts 223°
2026-05-05 01:16 -23.13676 -47.16414 7046 ft 284 kts 223°
2026-05-05 01:17 -23.15185 -47.17835 7882 ft 287 kts 222°
2026-05-05 01:17 -23.16688 -47.19255 8706 ft 290 kts 222°
2026-05-05 01:17 -23.18222 -47.20704 9532 ft 293 kts 222°
2026-05-05 01:17 -23.19798 -47.22117 10359 ft 295 kts 213°
2026-05-05 01:18 -23.21729 -47.23004 10862 ft 311 kts 195°
2026-05-05 01:18 -23.23878 -47.23591 11315 ft 327 kts 195°
2026-05-05 01:18 -23.26148 -47.24224 11823 ft 343 kts 195°
2026-05-05 01:18 -23.28485 -47.24863 12677 ft 346 kts 195°
2026-05-05 01:19 -23.30838 -47.25504 13533 ft 348 kts 195°
2026-05-05 01:19 -23.33217 -47.26151 14338 ft 351 kts 195°
2026-05-05 01:19 -23.35577 -47.26791 15114 ft 354 kts 195°
2026-05-05 01:19 -23.37996 -47.27448 15849 ft 358 kts 195°
2026-05-05 01:20 -23.40416 -47.28104 16567 ft 361 kts 195°
2026-05-05 01:20 -23.42868 -47.28769 17173 ft 367 kts 195°
2026-05-05 01:20 -23.45434 -47.29465 17222 ft 377 kts 195°
2026-05-05 01:20 -23.47963 -47.30150 17239 ft 370 kts 195°
2026-05-05 01:21 -23.50435 -47.30817 17299 ft 363 kts 195°
2026-05-05 01:21 -23.52929 -47.31494 17383 ft 370 kts 195°
2026-05-05 01:21 -23.55428 -47.32171 18180 ft 369 kts 196°
2026-05-05 01:21 -23.57912 -47.32845 18955 ft 369 kts 196°
2026-05-05 01:22 -23.60433 -47.33531 19607 ft 373 kts 196°
2026-05-05 01:22 -23.62963 -47.34219 20314 ft 374 kts 196°
2026-05-05 01:22 -23.65500 -47.34909 20981 ft 376 kts 196°
2026-05-05 01:22 -23.68059 -47.35606 21576 ft 380 kts 196°
2026-05-05 01:23 -23.70632 -47.36306 22217 ft 382 kts 196°
2026-05-05 01:23 -23.73252 -47.37020 22838 ft 385 kts 196°
2026-05-05 01:23 -23.75868 -47.37732 23462 ft 387 kts 196°
2026-05-05 01:23 -23.78505 -47.38451 24064 ft 389 kts 197°
2026-05-05 01:24 -23.81170 -47.39178 24595 ft 394 kts 197°
2026-05-05 01:24 -23.83819 -47.39900 25200 ft 395 kts 197°
2026-05-05 01:24 -23.86511 -47.40635 25762 ft 397 kts 197°
2026-05-05 01:24 -23.89216 -47.41373 26281 ft 400 kts 197°
2026-05-05 01:25 -23.91933 -47.42116 26803 ft 402 kts 197°
2026-05-05 01:25 -23.94660 -47.42862 27216 ft 407 kts 197°
2026-05-05 01:25 -23.97443 -47.43622 27776 ft 408 kts 197°
2026-05-05 01:25 -24.00235 -47.44386 28153 ft 413 kts 197°
2026-05-05 01:26 -24.05918 -47.45943 28212 ft 428 kts 197°
2026-05-05 01:26 -24.11826 -47.47574 28492 ft 432 kts 198°
2026-05-05 01:27 -24.14709 -47.48399 29510 ft 421 kts 198°
2026-05-05 01:27 -24.17536 -47.49206 30154 ft 419 kts 198°
2026-05-05 01:27 -24.23228 -47.50840 30174 ft 427 kts 198°
2026-05-05 01:28 -24.29049 -47.52509 30156 ft 427 kts 198°
2026-05-05 01:28 -24.31898 -47.53327 30149 ft 424 kts 198°
2026-05-05 01:29 -24.37590 -47.54962 30156 ft 424 kts 198°
2026-05-05 01:29 -24.43373 -47.56625 30149 ft 428 kts 198°
2026-05-05 01:30 -24.49173 -47.58294 30141 ft 426 kts 198°
2026-05-05 01:30 -24.54903 -47.59945 30150 ft 431 kts 198°
2026-05-05 01:31 -24.60890 -47.61673 30144 ft 446 kts 198°
2026-05-05 01:31 -24.66913 -47.63408 30137 ft 442 kts 198°
2026-05-05 01:32 -24.72839 -47.65120 30142 ft 442 kts 198°
2026-05-05 01:32 -24.78864 -47.66862 30140 ft 442 kts 198°
2026-05-05 01:33 -24.84832 -47.68590 30144 ft 442 kts 198°
2026-05-05 01:33 -24.90804 -47.70320 30148 ft 442 kts 198°
2026-05-05 01:34 -24.96779 -47.72053 30148 ft 440 kts 198°
2026-05-05 01:34 -25.02737 -47.73784 30145 ft 440 kts 198°
2026-05-05 01:35 -25.08669 -47.75508 30147 ft 440 kts 198°
2026-05-05 01:35 -25.14628 -47.77242 30153 ft 441 kts 198°
2026-05-05 01:36 -25.20608 -47.78983 30149 ft 440 kts 198°
2026-05-05 01:36 -25.26545 -47.80714 30144 ft 439 kts 198°
2026-05-05 01:37 -25.32491 -47.82449 30149 ft 441 kts 198°
2026-05-05 01:37 -25.38450 -47.84190 30150 ft 441 kts 198°
2026-05-05 01:38 -25.44425 -47.85937 30149 ft 440 kts 198°
2026-05-05 01:38 -25.50369 -47.87677 30144 ft 439 kts 198°
2026-05-05 01:39 -25.56278 -47.89408 30142 ft 439 kts 198°
2026-05-05 01:39 -25.62227 -47.91154 30137 ft 439 kts 198°
2026-05-05 01:40 -25.68164 -47.92897 30141 ft 439 kts 198°
2026-05-05 01:40 -25.74035 -47.94622 30135 ft 437 kts 198°
2026-05-05 01:41 -25.79958 -47.96365 30134 ft 437 kts 198°
2026-05-05 01:41 -25.85892 -47.98112 30133 ft 438 kts 198°
2026-05-05 01:42 -25.91791 -47.99852 30133 ft 438 kts 198°
2026-05-05 01:42 -25.97654 -48.01580 30122 ft 424 kts 198°
2026-05-05 01:43 -26.03274 -48.03243 30129 ft 414 kts 199°
2026-05-05 01:43 -26.08890 -48.05011 30136 ft 419 kts 199°
2026-05-05 01:44 -26.14514 -48.06781 30021 ft 405 kts 199°
2026-05-05 01:44 -26.17225 -48.07637 29497 ft 402 kts 199°
2026-05-05 01:44 -26.19901 -48.08482 29016 ft 398 kts 199°
2026-05-05 01:45 -26.22563 -48.09323 28534 ft 394 kts 199°
2026-05-05 01:45 -26.25195 -48.10155 28068 ft 390 kts 199°
2026-05-05 01:45 -26.27796 -48.10976 27608 ft 386 kts 199°
2026-05-05 01:45 -26.30382 -48.11795 27150 ft 382 kts 199°
2026-05-05 01:46 -26.32948 -48.12606 26700 ft 378 kts 199°
2026-05-05 01:46 -26.35459 -48.13401 26258 ft 375 kts 199°
2026-05-05 01:46 -26.37998 -48.14206 25817 ft 373 kts 199°
2026-05-05 01:46 -26.40486 -48.14994 25392 ft 370 kts 199°
2026-05-05 01:47 -26.42973 -48.15782 24968 ft 368 kts 199°
2026-05-05 01:47 -26.45421 -48.16559 24549 ft 367 kts 199°
2026-05-05 01:47 -26.47885 -48.17340 24133 ft 363 kts 199°
2026-05-05 01:47 -26.50317 -48.18111 23722 ft 363 kts 199°
2026-05-05 01:48 -26.52766 -48.18889 23315 ft 362 kts 199°
2026-05-05 01:48 -26.55178 -48.19655 22913 ft 358 kts 199°
2026-05-05 01:48 -26.57588 -48.20422 22513 ft 357 kts 199°
2026-05-05 01:48 -26.59961 -48.21176 22124 ft 357 kts 199°
2026-05-05 01:49 -26.62341 -48.21933 21731 ft 355 kts 199°
2026-05-05 01:49 -26.64737 -48.22695 21340 ft 354 kts 199°
2026-05-05 01:49 -26.67108 -48.23450 20953 ft 353 kts 199°
2026-05-05 01:49 -26.69498 -48.24211 20561 ft 352 kts 199°
2026-05-05 01:50 -26.71840 -48.24957 20192 ft 351 kts 199°
2026-05-05 01:50 -26.74202 -48.25710 19813 ft 350 kts 199°
2026-05-05 01:50 -26.76556 -48.26460 19437 ft 350 kts 199°
2026-05-05 01:50 -26.78885 -48.27203 19054 ft 349 kts 199°
2026-05-05 01:51 -26.81212 -48.27946 18675 ft 346 kts 199°
2026-05-05 01:51 -26.83545 -48.28691 18294 ft 345 kts 199°
2026-05-05 01:51 -26.85873 -48.29434 17922 ft 345 kts 199°
2026-05-05 01:51 -26.88186 -48.30174 17557 ft 345 kts 199°
2026-05-05 01:52 -26.90505 -48.30914 17179 ft 343 kts 199°
2026-05-05 01:52 -26.92789 -48.31646 16799 ft 342 kts 199°
2026-05-05 01:52 -26.95094 -48.32383 16430 ft 342 kts 199°
2026-05-05 01:52 -26.97387 -48.33116 16059 ft 340 kts 199°
2026-05-05 01:53 -26.99650 -48.33842 15677 ft 339 kts 199°
2026-05-05 01:53 -27.01938 -48.34561 15289 ft 339 kts 195°
2026-05-05 01:53 -27.04318 -48.34811 14937 ft 343 kts 181°
2026-05-05 01:53 -27.06692 -48.34685 14478 ft 344 kts 180°
2026-05-05 01:54 -27.09106 -48.34565 13987 ft 344 kts 180°
2026-05-05 01:54 -27.11493 -48.34436 13469 ft 345 kts 180°
2026-05-05 01:54 -27.13927 -48.34301 12946 ft 346 kts 180°
2026-05-05 01:54 -27.16344 -48.34165 12419 ft 347 kts 180°
2026-05-05 01:55 -27.18739 -48.34028 11862 ft 348 kts 180°
2026-05-05 01:55 -27.21180 -48.33889 11402 ft 346 kts 180°
2026-05-05 01:55 -27.23557 -48.33751 11134 ft 340 kts 180°
2026-05-05 01:55 -27.25943 -48.33615 10515 ft 344 kts 180°
2026-05-05 01:56 -27.28322 -48.33477 10256 ft 335 kts 180°
2026-05-05 01:56 -27.30621 -48.33343 10241 ft 319 kts 180°
2026-05-05 01:56 -27.32802 -48.33217 10217 ft 305 kts 180°
2026-05-05 01:56 -27.34896 -48.33096 10183 ft 292 kts 180°
2026-05-05 01:57 -27.36890 -48.32981 9832 ft 285 kts 180°
2026-05-05 01:57 -27.38878 -48.32869 9312 ft 284 kts 180°
2026-05-05 01:57 -27.40843 -48.32756 8855 ft 281 kts 180°
2026-05-05 01:57 -27.42806 -48.32643 8362 ft 280 kts 180°
2026-05-05 01:58 -27.44752 -48.32532 7874 ft 278 kts 180°
2026-05-05 01:58 -27.46675 -48.32421 7436 ft 277 kts 180°
2026-05-05 01:58 -27.48615 -48.32310 7052 ft 279 kts 180°
2026-05-05 01:58 -27.50540 -48.32197 6890 ft 270 kts 180°
2026-05-05 01:59 -27.52398 -48.32090 6506 ft 265 kts 180°
2026-05-05 01:59 -27.54250 -48.31982 6219 ft 260 kts 180°
2026-05-05 01:59 -27.56064 -48.31878 5941 ft 258 kts 180°
2026-05-05 01:59 -27.57858 -48.31775 5657 ft 258 kts 180°
2026-05-05 02:00 -27.59662 -48.31671 5333 ft 258 kts 180°
2026-05-05 02:00 -27.61463 -48.31567 5007 ft 252 kts 179°
2026-05-05 02:00 -27.63191 -48.31466 4737 ft 246 kts 179°
2026-05-05 02:00 -27.64881 -48.31368 4482 ft 240 kts 179°
2026-05-05 02:01 -27.66527 -48.31274 4260 ft 231 kts 180°
2026-05-05 02:01 -27.68087 -48.31600 3865 ft 224 kts 211°
2026-05-05 02:01 -27.69407 -48.32455 3724 ft 215 kts 213°
2026-05-05 02:01 -27.70706 -48.33297 3480 ft 214 kts 214°
2026-05-05 02:02 -27.71991 -48.34149 3248 ft 212 kts 214°
2026-05-05 02:02 -27.73263 -48.35003 3020 ft 210 kts 214°
2026-05-05 02:02 -27.74478 -48.35875 2789 ft 207 kts 226°
2026-05-05 02:02 -27.75188 -48.37188 2590 ft 187 kts 265°
2026-05-05 02:03 -27.75019 -48.38559 2369 ft 167 kts 299°
2026-05-05 02:03 -27.74535 -48.39725 2202 ft 160 kts 300°
2026-05-05 02:03 -27.74059 -48.40815 2058 ft 152 kts 302°
2026-05-05 02:03 -27.73555 -48.41882 1995 ft 151 kts 304°
2026-05-05 02:04 -27.73058 -48.42892 1937 ft 147 kts 305°
2026-05-05 02:04 -27.72540 -48.43910 1734 ft 146 kts 306°
2026-05-05 02:04 -27.72041 -48.44875 1622 ft 142 kts 306°
2026-05-05 02:04 -27.71527 -48.45853 1551 ft 148 kts 307°
2026-05-05 02:05 -27.70988 -48.46867 1299 ft 150 kts 306°
2026-05-05 02:05 -27.70458 -48.47868 1044 ft 143 kts 305°
2026-05-05 02:05 -27.69954 -48.48813 879 ft 141 kts 305°
2026-05-05 02:05 -27.69431 -48.49788 682 ft 146 kts 305°
2026-05-05 02:06 -27.68898 -48.50778 469 ft 146 kts 304°
2026-05-05 02:06 -27.68375 -48.51757 258 ft 144 kts 304°
2026-05-05 02:06 -27.67855 -48.52726 109 ft 139 kts 303°
2026-05-05 02:06 -27.67360 -48.53635 35 ft 130 kts 304°
2026-05-05 02:07 -27.66984 -48.54338 31 ft 64 kts 300°
2026-05-05 02:07 -27.66793 -48.54695 32 ft 40 kts 301°
2026-05-05 02:07 -27.66665 -48.54933 32 ft 26 kts 300°
2026-05-05 02:07 -27.66601 -48.55051 33 ft 9 kts 301°
2026-05-05 02:08 -27.66584 -48.55105 34 ft 5 kts 264°
2026-05-05 02:08 -27.66599 -48.55134 34 ft 4 kts 218°
2026-05-05 02:08 -27.66636 -48.55141 34 ft 7 kts 170°
2026-05-05 02:08 -27.66700 -48.55125 34 ft 9 kts 170°
2026-05-05 02:09 -27.66730 -48.55159 35 ft 7 kts 267°
2026-05-05 02:09 -27.66703 -48.55219 35 ft 11 kts 329°
2026-05-05 02:09 -27.66605 -48.55215 35 ft 17 kts 13°
2026-05-05 02:09 -27.66469 -48.55182 35 ft 17 kts 10°
2026-05-05 02:10 -27.66395 -48.55159 35 ft 8 kts 42°
2026-05-05 02:10 -27.66366 -48.55101 35 ft 8 kts 68°
2026-05-05 02:10 -27.66345 -48.55043 35 ft 7 kts 67°
2026-05-05 02:10 -27.66333 -48.54988 35 ft 6 kts 93°
2026-05-05 02:11 -27.66355 -48.54940 35 ft 7 kts 126°
2026-05-05 02:11 -27.66380 -48.54899 35 ft 5 kts 105°
2026-05-05 02:11 -27.66371 -48.54871 35 ft 1 kts 39°
2026-05-05 02:11 -27.66369 -48.54868 35 ft 0 kts 39°
2026-05-05 02:12 -27.66369 -48.54869 35 ft 0 kts 39°